ZA-AEROSAT (42713 NORAD) Tracking and Keplerian Element Data

This shows tracking and keplerian element data for the satellite.

Feedback or suggestion? Click here.




ElementValue
Catalog42713
NameZA-AEROSAT
Epoch Orbit8942
Epoch Day345.52033182
Epoch Year2018
RAAN171.4013
Inclination51.6338
Eccentricity0.0003146
Argument of Perigee154.4108
Mean Anonmoly205.7049
Mean Motion15.77147811
Decay Rate0.00037305
L11 42713U 98067LU 18345.52033182 .00037305 00000-0 22628-3 0 9993
L22 42713 51.6338 171.4013 0003146 154.4108 205.7049 15.77147811 89421

Live tracking and technical data element details for ZA-AEROSAT (NORAD 42713). ZA-AEROSAT can be tracked NOW for your location showing map with azimuth and elevation plus other details from your city location.

Track the satellite on the map from your city or location and see movement details for azimuth, elevation, latitude, longitude, range, height, and movement on the map or in text.







IsCatalogInMostPopularTable: catalog: 42713, numindb: 145
Update: records affected: 1



GetName: 42713 ZA-AEROSAT

Hit Count: updated at: Thu, 13 Dec 2018 04:25:48 GMT